Date String (YYYY-MM-DD hh:mm:ss) UTC,Instrument flags,absolute air pressure of the measurement (hPa),sample flow rate (lpm),inlet stack bypass flow (lpm),air temperature of the measurement (°C),ambient temperature measured by the external sensor (°C),aerosol sample conditioner tube jacket temperature (°C),OPC LED temperature (°C),internal box temperature (°C),relative humidity of the measurement (%),span deviation,mass concentration of particles derived from Lorenz-Mie calculation of OPC scattering (μg/m³),mass concentration of particles derived from Lorenz-Mie calculation of OPC scattering (μg/m³),mass concentration of particles derived from Lorenz-Mie calculation of OPC scattering (μg/m³)
DateTimeUTC,F1_M11,P_M11,Q1_M11,Q2_M11,T1_M11,T2_M11,T3_M11,T4_M11,T5_M11,U1_M11,ZSPAN_M11,X2_M11,X0_M11,X1_M11
2023-10-21 20:00:00,SystemResetWarning,0827.7,5.01,000.00,028.1,025.6,000.0,036.6,029.8,12.1,0000.0,0002.54,0011.07,0001.22
2023-10-21 20:01:00,SystemResetWarning,0827.7,4.98,000.00,028.1,026.0,000.0,036.6,029.8,11.9,0000.0,0002.55,0011.22,0001.23
2023-10-21 20:02:00,SystemResetWarning,0827.7,5.00,000.00,028.2,026.3,000.0,036.6,029.9,11.9,0000.0,0002.56,0010.75,0001.24
2023-10-21 20:03:00,SystemResetWarning,0827.7,5.00,000.00,028.2,026.7,000.0,036.6,030.0,12.0,0000.0,0002.67,0009.78,0001.26
2023-10-21 20:04:00,SystemResetWarning,0827.7,5.00,000.00,028.2,026.9,000.0,036.6,030.1,12.0,0000.0,0002.66,0009.68,0001.26
2023-10-21 20:05:00,SystemResetWarning,0827.7,4.99,000.00,028.3,027.2,000.0,036.7,030.2,11.9,0000.0,0002.68,0009.95,0001.25
2023-10-21 20:06:00,SystemResetWarning,0827.7,4.99,000.00,028.4,027.1,000.0,036.7,030.2,11.6,0000.0,0002.70,0009.96,0001.25
2023-10-21 20:07:00,SystemResetWarning,0827.7,4.99,000.00,028.3,025.6,000.0,036.6,030.1,11.6,0000.0,0002.75,0009.97,0001.26
2023-10-21 20:08:00,SystemResetWarning,0827.5,5.01,000.00,028.3,024.4,000.0,036.5,029.9,11.8,0000.0,0002.84,0009.89,0001.27
2023-10-21 20:09:00,SystemResetWarning,0827.5,5.02,000.00,028.2,024.5,000.0,036.5,029.8,11.9,0000.0,0002.84,0009.34,0001.28
2023-10-21 20:10:00,SystemResetWarning,0827.5,4.99,000.00,028.1,024.9,000.0,036.5,029.6,12.3,0000.0,0002.77,0008.84,0001.28
2023-10-21 20:11:00,SystemResetWarning,0827.6,5.00,000.00,028.1,025.3,000.0,036.5,029.7,12.5,0000.0,0002.77,0008.70,0001.27
2023-10-21 20:12:00,SystemResetWarning,0827.9,5.01,000.00,028.1,025.7,000.0,036.6,029.8,12.2,0000.0,0002.71,0008.99,0001.26
2023-10-21 20:13:00,SystemResetWarning,0827.8,4.99,000.00,028.1,026.2,000.0,036.6,029.9,12.2,0000.0,0002.71,0009.03,0001.27
2023-10-21 20:14:00,SystemResetWarning,0827.9,4.99,000.00,028.2,026.5,000.0,036.6,030.0,12.3,0000.0,0002.64,0009.40,0001.25
2023-10-21 20:15:00,SystemResetWarning,0827.5,5.00,000.00,028.2,026.8,000.0,036.6,030.0,12.6,0000.0,0002.61,0009.71,0001.24
2023-10-21 20:16:00,SystemResetWarning,0827.5,5.00,000.00,028.3,027.0,000.0,036.6,030.1,12.3,0000.0,0002.65,0010.08,0001.25
2023-10-21 20:17:00,SystemResetWarning,0827.5,4.99,000.00,028.3,027.1,000.0,036.6,030.2,11.9,0000.0,0002.69,0010.31,0001.26
2023-10-21 20:18:00,SystemResetWarning,0827.6,4.99,000.00,028.3,025.9,000.0,036.6,030.1,11.7,0000.0,0002.82,0011.14,0001.28
2023-10-21 20:19:00,SystemResetWarning,0827.7,5.01,000.00,028.2,024.5,000.0,036.5,029.9,11.7,0000.0,0002.81,0011.74,0001.29
2023-10-21 20:20:00,SystemResetWarning,0827.5,5.01,000.00,028.2,024.5,000.0,036.5,029.8,11.6,0000.0,0002.83,0011.65,0001.30
2023-10-21 20:21:00,SystemResetWarning,0827.4,5.02,000.00,028.1,024.8,000.0,036.5,029.6,11.5,0000.0,0002.86,0011.54,0001.31
2023-10-21 20:22:00,SystemResetWarning,0827.4,5.00,000.00,028.1,025.2,000.0,036.5,029.7,11.5,0000.0,0002.85,0012.21,0001.32
2023-10-21 20:23:00,SystemResetWarning,0827.4,5.00,000.00,028.1,025.7,000.0,036.5,029.8,11.6,0000.0,0003.00,0013.02,0001.34
2023-10-21 20:24:00,SystemResetWarning,0827.4,5.00,000.00,028.1,026.1,000.0,036.5,029.9,11.6,0000.0,0003.07,0012.95,0001.35
2023-10-21 20:25:00,SystemResetWarning,0827.4,5.01,000.00,028.2,026.5,000.0,036.6,029.9,12.2,0000.0,0003.10,0012.87,0001.37
2023-10-21 20:26:00,SystemResetWarning,0827.4,5.00,000.00,028.2,026.8,000.0,036.6,030.0,12.3,0000.0,0003.12,0014.18,0001.39
2023-10-21 20:27:00,SystemResetWarning,0827.4,5.00,000.00,028.3,027.1,000.0,036.6,030.1,12.1,0000.0,0003.09,0014.29,0001.42
2023-10-21 20:28:00,SystemResetWarning,0827.5,5.00,000.00,028.3,026.9,000.0,036.6,030.2,12.0,0000.0,0003.12,0014.56,0001.42
2023-10-21 20:29:00,SystemResetWarning,0827.4,4.99,000.00,028.3,025.2,000.0,036.6,030.0,12.1,0000.0,0002.99,0015.11,0001.39
2023-10-21 20:30:00,SystemResetWarning,0827.4,5.02,000.00,028.2,024.2,000.0,036.5,029.8,12.1,0000.0,0002.94,0014.47,0001.39
2023-10-21 20:31:00,SystemResetWarning,0827.5,5.00,000.00,028.1,024.4,000.0,036.5,029.7,12.2,0000.0,0002.90,0014.69,0001.37
2023-10-21 20:32:00,SystemResetWarning,0827.4,5.00,000.00,028.1,024.8,000.0,036.5,029.6,12.4,0000.0,0002.90,0014.80,0001.36
2023-10-21 20:33:00,SystemResetWarning,0827.4,5.00,000.00,028.0,025.3,000.0,036.5,029.6,12.5,0000.0,0002.90,0016.23,0001.34
2023-10-21 20:34:00,SystemResetWarning,0827.4,5.00,000.00,028.1,025.8,000.0,036.5,029.8,12.6,0000.0,0002.72,0015.43,0001.33
2023-10-21 20:35:00,SystemResetWarning,0827.4,5.01,000.00,028.1,026.2,000.0,036.5,029.9,12.5,0000.0,0002.69,0016.02,0001.33
2023-10-21 20:36:00,SystemResetWarning,0827.4,5.00,000.00,028.1,026.5,000.0,036.5,030.0,12.2,0000.0,0002.68,0016.78,0001.32
2023-10-21 20:37:00,SystemResetWarning,0827.5,5.00,000.00,028.2,026.8,000.0,036.6,030.0,12.2,0000.0,0002.70,0016.25,0001.31
2023-10-21 20:38:00,SystemResetWarning,0827.5,5.00,000.00,028.2,027.1,000.0,036.6,030.1,12.3,0000.0,0002.74,0015.46,0001.29
2023-10-21 20:39:00,SystemResetWarning,0827.6,5.00,000.00,028.3,027.1,000.0,036.6,030.2,12.4,0000.0,0002.69,0015.29,0001.28
2023-10-21 20:40:00,SystemResetWarning,0827.5,4.98,000.00,028.3,025.6,000.0,036.6,030.0,12.4,0000.0,0002.77,0014.73,0001.30
2023-10-21 20:41:00,SystemResetWarning,0827.4,5.01,000.00,028.2,024.3,000.0,036.5,029.8,12.5,0000.0,0002.78,0015.72,0001.29
2023-10-21 20:42:00,SystemResetWarning,0827.4,5.01,000.00,028.1,024.4,000.0,036.4,029.7,12.6,0000.0,0002.80,0015.31,0001.30
2023-10-21 20:43:00,SystemResetWarning,0827.4,5.00,000.00,028.1,024.8,000.0,036.5,029.6,12.7,0000.0,0002.84,0015.37,0001.31
2023-10-21 20:44:00,SystemResetWarning,0827.4,5.00,000.00,028.0,025.2,000.0,036.5,029.6,12.5,0000.0,0002.81,0013.95,0001.32
2023-10-21 20:45:00,SystemResetWarning,0827.4,5.00,000.00,028.1,025.7,000.0,036.5,029.7,12.5,0000.0,0002.89,0014.40,0001.32
2023-10-21 20:46:00,SystemResetWarning,0827.4,5.00,000.00,028.1,026.1,000.0,036.5,029.9,12.5,0000.0,0002.95,0015.20,0001.33
2023-10-21 20:47:00,SystemResetWarning,0827.4,5.00,000.00,028.1,026.5,000.0,036.5,029.9,12.3,0000.0,0002.98,0014.43,0001.34
2023-10-21 20:48:00,SystemResetWarning,0827.4,5.01,000.00,028.2,026.8,000.0,036.5,030.0,12.2,0000.0,0002.95,0013.49,0001.35
2023-10-21 20:49:00,SystemResetWarning,0827.4,4.99,000.00,028.2,027.1,000.0,036.6,030.1,12.2,0000.0,0002.95,0014.25,0001.37
2023-10-21 20:50:00,SystemResetWarning,0827.4,4.98,000.00,028.3,026.7,000.0,036.6,030.1,12.2,0000.0,0003.02,0014.59,0001.39
2023-10-21 20:51:00,SystemResetWarning,0827.4,5.00,000.00,028.2,025.0,000.0,036.5,029.9,12.3,0000.0,0003.01,0014.40,0001.39
2023-10-21 20:52:00,SystemResetWarning,0827.4,5.00,000.00,028.1,024.3,000.0,036.5,029.8,12.3,0000.0,0003.06,0013.48,0001.40
2023-10-21 20:53:00,SystemResetWarning,0827.4,5.01,000.00,028.1,024.5,000.0,036.4,029.6,12.3,0000.0,0003.08,0013.64,0001.42
2023-10-21 20:54:00,SystemResetWarning,0827.4,5.00,000.00,028.0,024.9,000.0,036.4,029.6,12.3,0000.0,0003.11,0013.58,0001.43
2023-10-21 20:55:00,SystemResetWarning,0827.4,4.99,000.00,028.0,025.4,000.0,036.5,029.6,12.3,0000.0,0003.15,0013.58,0001.45
2023-10-21 20:56:00,SystemResetWarning,0827.4,5.00,000.00,028.0,025.8,000.0,036.5,029.7,12.5,0000.0,0003.18,0012.88,0001.44
2023-10-21 20:57:00,SystemResetWarning,0827.4,5.00,000.00,028.1,026.2,000.0,036.5,029.8,12.2,0000.0,0003.16,0012.96,0001.43
2023-10-21 20:58:00,SystemResetWarning,0827.4,5.00,000.00,028.1,026.6,000.0,036.5,029.9,12.2,0000.0,0003.13,0013.13,0001.41
2023-10-21 20:59:00,SystemResetWarning,0827.4,5.01,000.00,028.2,026.9,000.0,036.5,030.0,12.2,0000.0,0003.12,0014.04,0001.39
